Location: Newark
(47.5000°N, 4.6167°E)
Time: 01:24:32
(UTC+00:00)

X-37B - Pass Details

Date: 15 December 2021
Orbit: 334 x 337 km, 45.0° (Epoch: 11 January)

Event Time Altitude Azimuth Distance (km) Brightness Sun altitude
Rises 16:44:39 0° 266° (W) 2,105 5.8 -8.7°
Reaches altitude 10° 16:46:41 10° 260° (W) 1,268 4.6 -9.0°
Maximum altitude 16:49:27 50° 184° (S) 435 1.0 -9.4°
Drops below altitude 10° 16:52:12 10° 107° (ESE) 1,266 2.7 -9.9°
Enters shadow 16:52:16 10° 107° (ESE) 1,288 2.8 -9.9°
